Miscellaneous Hydrologic Data Report
Issued by NWS (Baltimore/Washington) Sterling, VA
1 of 52 available versions  First Miscellaneous Hydrologic Data Report Previous Miscellaneous Hydrologic Data Report  Print this page Close this Window


000
ASUS41 KLWX 260610
RWRLWX

REGIONAL WEATHER ROUNDUP
NATIONAL WEATHER SERVICE BALTIMORE MD/WASHINGTON DC
200 AM EDT SAT JUL 26 2014

Note: "FAIR" indicates few or no clouds below 12,000 feet
with no significant weather and/or obstructions to visibility.
 TC=TEMPERATURE CELSIUS

 * =Non NWS site. Station does not report precipitation (e.g. rain,
    snow, etc.), thunder, or fog.

DCZ001-MDZ009-015-VAZ040>042-051-053>054-260700-
WASHINGTON METRO
  /KDAA//-FT BELVOIR

CITY           SKY/WX    TMP DP  RH WIND       PRES   REMARKS
WASHINGTON NAT CLOUDY    73  65  75 S7        30.01F
DULLES         CLOUDY    67  62  84 S3        30.01S
ANDREWS AFB    CLOUDY    68  63  84 S7        30.01F
QUANTICO       CLOUDY    73  65  75 S8        30.01F
COLLEGE PARK*  CLOUDY    66  61  82 CALM      30.00F
LEESBURG*      CLOUDY    70  64  83 CALM      30.02S
MANASSAS*      CLOUDY    66  66 100 CALM      30.01S
GAITHERSBURG*  CLOUDY    66  59  77 S3        30.06S

$$

MDZ006>007-011-014-260700-
BALTIMORE METRO

CITY           SKY/WX    TMP DP  RH WIND       PRES   REMARKS
BWI AIRPORT    CLOUDY    66  59  77 CALM      30.00F
MD SCIENCE CTR   N/A     73  59  61 MISG      30.01F
MARTIN STATE   MOCLDY    66  63  88 CALM      30.02S
ANNAPOLIS      MOCLDY    71  61  70 CALM      30.01S
FORT MEADE*    CLOUDY    61  59  94 CALM      30.03F

$$

MDZ012-015-019>023-260700-
MARYLAND EASTERN SHORE

CITY           SKY/WX    TMP DP  RH WIND       PRES   REMARKS
OCEAN CITY     PTCLDY    63  61  93 CALM      30.02S
SALISBURY      NOT AVBL
BAY BRIDGE AP*   N/A     72  61  68 S3        30.01S
CAMBRIDGE*     PTCLDY    63  59  88 SE3       30.01F

$$

MDZ017>025-260700-
SOUTHERN MARYLAND

CITY           SKY/WX    TMP DP  RH WIND       PRES   REMARKS
PATUXENT RIVER MOCLDY    69  62  78 S3        30.02S
ST INIGOES     MOCLDY    73  62  68 S7        30.01F
LEONARDTOWN*   MOCLDY    68  61  77 CALM      30.03F

$$

MDZ003>005-260700-
NORTH CENTRAL MARYLAND

CITY           SKY/WX    TMP DP  RH WIND       PRES   REMARKS
FREDERICK*     CLOUDY    63  63 100 CALM      30.04S
HAGERSTOWN APT CLOUDY    69  57  65 E3        30.01S
WESTMINSTER*   CLOUDY    68  63  83 SE3       30.02F

$$

MDZ501>502-260700-
WESTERN MARYLAND

CITY           SKY/WX    TMP DP  RH WIND       PRES   REMARKS
OAKLAND*       CLOUDY    61  54  77 W3        30.11R
CUMBERLAND*    CLOUDY    68  57  68 CALM      30.05F

$$

VAZ025>031-260700-
SHENANDOAH VALLEY

CITY           SKY/WX    TMP DP  RH WIND       PRES   REMARKS
WINCHESTER*    MOCLDY    64  61  88 CALM      30.01S
STAUNTON*      CLOUDY    65  62  88 CALM      30.06S

$$

WVZ021-048>050-054>055-260700-
EASTERN WEST VIRGINIA PANHANDLE

CITY           SKY/WX    TMP DP  RH WIND       PRES   REMARKS
MARTINSBURG    CLOUDY    64  59  83 CALM      30.01S
PETERSBURG*    CLOUDY    63  57  82 CALM      30.03F

$$

VAZ036>039-050-260700-
CENTRAL FOOTHILLS

CITY           SKY/WX    TMP DP  RH WIND       PRES   REMARKS
CHARLOTTESVILL PTCLDY    66  64  93 CALM      30.02F
ORANGE*        MOCLDY    66  63  88 CALM      30.03S

$$

VAZ055>057-260700-
NORTH AND CENTRAL PIEDMONT

CITY           SKY/WX    TMP DP  RH WIND       PRES   REMARKS
FREDERICKSBRG* CLOUDY    68  66  92 CALM      30.01S
STAFFORD*      CLOUDY    64  64 100 CALM      30.05F

$$

NCZ024-NYZ072-PAZ021-071-VAZ022-071-260700-
OTHER REGIONAL OBSERVATIONS

CITY           SKY/WX    TMP DP  RH WIND       PRES   REMARKS
NEW YORK CITY  PTCLDY    71  61  70 W5        30.02F
PHILADELPHIA   MOCLDY    69  59  70 S7        30.02S
PITTSBURGH     LGT RAIN  65  61  87 CALM      30.03S
ROANOKE        CLOUDY    72  66  81 SE6       30.06F
RICHMOND       MOCLDY    69  63  81 CALM      30.02F
RALEIGH        PTCLDY    71  67  87 CALM      30.03F

$$

ANZ530>537-260700-
MARINE OBSERVATIONS

STATION/POSITION TIME  TEMP    WIND        PRES
                       AIR SEA DIR/SP/G
                 (UTC) (F)     (DEG/KT/KT) (MB)
THOMAS PT LIGHT  0600   74 79  210/ 12/ 13 1016.7S
BALT KEY BRIDGE  0600   72                 1016.1S
COVE POINT       0600   73                 1016.3F
LEWISETTA        0600   72 80              1016.2F
SOLOMONS ISLAND  0600      81                N/A
PINEY POINT      0500          200/ 11/ 12   N/A

$$


Close this window


The National Weather Service prepares its forecasts and other services in collaboration with agencies like the US Geological Survey, US Bureau of Reclamation, US Army Corps of Engineers, Natural Resource Conservation Service, National Park Service, ALERT Users Group, Bureau of Indian Affairs, and many state and local emergency managers across the country. For details, please click here.

National Weather Service
(Baltimore/Washington) Sterling Weather Forecast Office
43858 Weather Service Rd.
Sterling, VA 20166
(703) 996-2200
Page last modified: 26-Jul-2014 6:10 AM
Disclaimer
Credits
Glossary
Privacy Policy
About Us
Career Opportunities